MMGM

General José María Yáñez International Airport

Airport
ICAO code
MMGM
IATA Code
GYM
Summary
ICAO Region
CARSAM
ICAO Territory
Location

Luis Donaldo Colosio, Sonora

Serving
Guaymas
Elevation
59 ft
Coordinates
27° 58' 8" N , 110° 55' 31" W
KCC
Metar
MMGM 222340Z 22013KT 10SM SKC 34/01 A2976

General José María Yáñez International airport is an international airport located in Guaymas, Sonora, Mexico.

Climatology

Hot Desert Climate (Köppen climate classification BWh)

Runways

Designator Length Width Surface Rops
2/20 2350 45 ASP No/No

Airport map

Aerial View

SKYbrary Partners:

Safety knowledge contributed by: